TimeCET,TemperatureF,Dew PointF,Humidity,Sea Level PressureIn,VisibilityMPH,Wind Direction,Wind SpeedMPH,Gust SpeedMPH,PrecipitationIn,Events,Conditions,WindDirDegrees,DateUTC
12:00 AM,33.8,30.2,87,29.92,6.2,West,5.8,-,N/A,,Partly Cloudy,280,2012-12-05 23:00:00
12:30 AM,32.0,30.2,93,29.92,6.2,WNW,8.1,-,N/A,,Partly Cloudy,300,2012-12-05 23:30:00
1:00 AM,33.8,30.2,87,29.92,6.2,WNW,10.4,-,N/A,,Partly Cloudy,300,2012-12-06 00:00:00
1:30 AM,32.0,30.2,93,29.95,6.2,WNW,10.4,-,N/A,,Partly Cloudy,300,2012-12-06 00:30:00
2:00 AM,32.0,30.2,93,29.95,6.2,WNW,8.1,-,N/A,,Partly Cloudy,290,2012-12-06 01:00:00
2:30 AM,32.0,30.2,93,29.98,-9999.0,WNW,10.4,-,N/A,,Clear,290,2012-12-06 01:30:00
3:00 AM,32.0,30.2,93,29.98,-9999.0,WNW,6.9,-,N/A,,Clear,300,2012-12-06 02:00:00
3:30 AM,32.0,30.2,93,29.98,6.2,WNW,6.9,-,N/A,,Partly Cloudy,290,2012-12-06 02:30:00
4:00 AM,32.0,30.2,93,30.01,-9999.0,WNW,9.2,-,N/A,,Clear,290,2012-12-06 03:00:00
4:30 AM,32.0,30.2,93,30.01,6.2,WNW,6.9,-,N/A,,Partly Cloudy,290,2012-12-06 03:30:00
5:00 AM,32.0,30.2,93,30.01,-9999.0,West,5.8,-,N/A,,Clear,280,2012-12-06 04:00:00
5:30 AM,32.0,30.2,93,30.04,-9999.0,West,6.9,-,N/A,,Clear,280,2012-12-06 04:30:00
6:00 AM,32.0,30.2,93,30.04,-9999.0,WNW,6.9,-,N/A,,Clear,290,2012-12-06 05:00:00
6:30 AM,32.0,30.2,93,30.04,-9999.0,West,5.8,-,N/A,,Clear,270,2012-12-06 05:30:00
7:00 AM,32.0,28.4,87,30.06,-9999.0,WNW,4.6,-,N/A,,Clear,300,2012-12-06 06:00:00
7:30 AM,32.0,30.2,93,30.06,6.2,West,6.9,-,N/A,,Scattered Clouds,280,2012-12-06 06:30:00
8:00 AM,32.0,30.2,93,30.06,6.2,West,5.8,-,N/A,,Partly Cloudy,270,2012-12-06 07:00:00
8:30 AM,32.0,30.2,93,30.06,6.2,West,5.8,-,N/A,,Scattered Clouds,270,2012-12-06 07:30:00
9:00 AM,32.0,30.2,93,30.09,-9999.0,West,4.6,-,N/A,,Clear,270,2012-12-06 08:00:00
9:30 AM,32.0,30.2,93,30.09,-9999.0,WNW,3.5,-,N/A,,Clear,290,2012-12-06 08:30:00
10:00 AM,32.0,30.2,93,30.09,-9999.0,West,5.8,-,N/A,,Clear,270,2012-12-06 09:00:00
10:30 AM,33.8,30.2,87,30.09,6.2,West,4.6,-,N/A,,Mostly Cloudy,280,2012-12-06 09:30:00
11:00 AM,35.6,30.2,81,30.12,6.2,West,2.3,-,N/A,,Mostly Cloudy,280,2012-12-06 10:00:00
11:30 AM,35.6,30.2,81,30.12,6.2,West,3.5,-,N/A,,Mostly Cloudy,270,2012-12-06 10:30:00
11:43 AM,35.6,30.2,81,30.12,6.2,West,5.8,-,N/A,,Mostly Cloudy,270,2012-12-06 10:43:00
2:00 PM,37.4,28.4,70,30.09,6.2,SW,4.6,-,N/A,,Mostly Cloudy,220,2012-12-06 13:00:00
2:30 PM,37.4,30.2,75,30.09,6.2,SW,5.8,-,N/A,,Mostly Cloudy,220,2012-12-06 13:30:00
3:00 PM,37.4,30.2,75,30.09,6.2,SSW,4.6,-,N/A,,Mostly Cloudy,200,2012-12-06 14:00:00
3:30 PM,37.4,30.2,75,30.09,6.2,SW,4.6,-,N/A,,Mostly Cloudy,220,2012-12-06 14:30:00
4:00 PM,37.4,28.4,70,30.06,6.2,SSW,4.6,-,N/A,,Mostly Cloudy,200,2012-12-06 15:00:00
4:30 PM,37.4,28.4,70,30.06,6.2,SW,5.8,-,N/A,,Mostly Cloudy,220,2012-12-06 15:30:00
5:00 PM,37.4,28.4,70,30.06,6.2,SW,5.8,-,N/A,,Mostly Cloudy,220,2012-12-06 16:00:00
5:30 PM,37.4,28.4,70,30.04,6.2,South,8.1,-,N/A,,Mostly Cloudy,190,2012-12-06 16:30:00
6:00 PM,37.4,30.2,75,30.04,6.2,South,9.2,-,N/A,,Overcast,180,2012-12-06 17:00:00
6:30 PM,35.6,30.2,81,30.04,-9999.0,South,9.2,-,N/A,,Clear,180,2012-12-06 17:30:00
7:00 PM,35.6,30.2,81,30.01,6.2,South,8.1,-,N/A,,Mostly Cloudy,190,2012-12-06 18:00:00
7:30 PM,35.6,30.2,81,30.01,6.2,South,10.4,-,N/A,,Mostly Cloudy,190,2012-12-06 18:30:00
8:00 PM,35.6,30.2,81,30.01,6.2,South,11.5,-,N/A,,Mostly Cloudy,190,2012-12-06 19:00:00
8:30 PM,35.6,30.2,81,30.01,6.2,South,10.4,-,N/A,,Mostly Cloudy,190,2012-12-06 19:30:00
9:00 PM,35.6,30.2,81,29.98,6.2,South,9.2,-,N/A,,Mostly Cloudy,190,2012-12-06 20:00:00
9:30 PM,35.6,30.2,81,29.98,6.2,South,9.2,-,N/A,,Mostly Cloudy,180,2012-12-06 20:30:00
10:00 PM,35.6,30.2,81,29.95,6.2,South,11.5,-,N/A,,Scattered Clouds,190,2012-12-06 21:00:00
10:30 PM,35.6,30.2,81,29.92,6.2,South,13.8,-,N/A,,Mostly Cloudy,190,2012-12-06 21:30:00
11:00 PM,35.6,30.2,81,29.92,6.2,South,11.5,-,N/A,,Mostly Cloudy,190,2012-12-06 22:00:00
11:30 PM,35.6,30.2,81,29.89,6.2,South,13.8,-,N/A,,Mostly Cloudy,190,2012-12-06 22:30:00